#timestamp,LO_Frequency,Hit,StdDev 
1561053615.5,286047002.4,P
1561053635.4,286047002.1,N
1561053655.2,286047000.0,N
1561053675.0,286046998.3,N
1561053675.9,286046998.3,N
1561053695.8,286046998.4,N
1561053715.6,286046999.1,N
1561053735.4,286046996.8,N
1561053755.3,286046996.7,N
1561053775.1,286046997.0,N
1561053776.0,286046997.0,N
1561053795.8,286046999.5,N
1561053815.7,286046999.1,N
1561053835.5,286046998.4,N
1561053855.3,286046999.5,N
1561053875.1,286046998.5,N
1561053895.9,286046998.8,N
1561053915.7,286046998.4,N
1561053935.6,286046998.1,N
1561053955.4,286047000.2,N
1561053975.2,286047000.8,N
1561053995.0,286047000.6,N
1561053996.0,286047000.6,N
1561054015.8,286047000.6,N
1561054035.6,286047000.5,N
1561054055.5,286047001.1,N
1561054075.3,286047000.7,N
1561054095.1,286046998.2,N
1561054115.9,286047001.0,N
1561054135.7,286046999.6,N
1561054155.5,286046996.6,N
1561054175.3,286046997.1,N
1561054195.2,286046997.6,N
1561054215.0,286046999.5,N
1561054215.9,286046999.5,N
1561054235.8,286046996.7,N
1561054255.6,286046997.4,N
1561054275.4,286046998.8,N
1561054295.3,286047000.8,N
1561054315.1,286046998.2,N
1561054316.0,286046998.2,N
1561054335.8,286047000.6,N
1561054355.7,286047000.1,N
1561054375.5,286047004.4,Y
1561054395.3,286047003.2,P
1561054415.2,286047004.3,N
1561054435.9,286047004.2,N
1561054455.7,286047001.6,N
1561054475.6,286047002.4,N
1561054495.4,286047002.3,N
1561054515.2,286046999.8,N
1561054535.1,286046998.6,N
1561054536.0,286046998.6,N
1561054555.8,286046998.4,N
1561054575.6,286046999.1,N
1561054595.5,286046998.9,N
1561054615.3,286046999.6,N
1561054635.1,286046999.4,N
1561054655.8,286046996.8,N
1561054675.7,286046998.6,N
1561054695.5,286046999.0,N
1561054715.3,286046996.5,N
1561054735.2,286046997.4,N
1561054755.0,286046995.0,N
1561054755.9,286046995.0,N
1561054775.7,286046995.7,N
1561054795.6,286046993.7,N
1561054815.4,286046996.2,N
1561054835.2,286046995.0,N
1561054855.1,286046995.8,N
1561054856.0,286046995.8,N
1561054875.8,286046995.6,N
1561054895.6,286046995.8,N
1561054915.5,286046993.5,N
1561054935.3,286046996.3,N
1561054955.1,286046996.0,N
1561054975.9,286046995.6,N
1561054995.7,286046996.0,N
1561055015.5,286046993.6,N
1561055035.4,286046996.0,N
1561055055.2,286046993.4,Y
1561055075.0,286046996.2,P
1561055075.9,286046996.2,P
1561055095.8,286046995.1,P
1561055115.6,286046995.3,Y
1561055135.5,286047001.0,P
1561055155.3,286047000.0,N
1561055175.1,286046998.1,N
1561055195.8,286046998.1,N
1561055215.7,286047000.7,N
1561055235.5,286047000.6,N
1561055255.3,286047002.1,N
1561055275.2,286047002.5,N
1561055295.0,286047001.4,N
1561055295.9,286047001.4,N
1561055315.7,286047002.2,N
1561055335.6,286046999.8,N
1561055355.4,286047000.2,N
1561055375.2,286047000.8,N
1561055395.1,286046999.1,N
1561055396.0,286046999.1,N
1561055415.8,286046997.4,N
1561055435.6,286046997.8,N
1561055455.5,286047001.0,N
1561055475.3,286047000.8,N
1561055495.1,286047002.2,N
1561055515.9,286047001.6,N
1561055535.7,286047001.5,N
1561055555.5,286047003.1,N
1561055575.4,286047001.3,N
1561055595.2,286047003.5,N
1561055615.0,286047012.3,Y
1561055615.9,286047012.3,P
1561055635.8,286047009.8,N
1561055655.6,286047009.9,N
1561055675.4,286047011.7,N
1561055695.3,286047009.3,N
1561055715.1,286047010.0,N
1561055735.8,286047012.2,Y
1561055755.7,286047003.5,P
1561055775.5,286047001.5,N
1561055795.3,286047003.6,N
1561055815.2,286047003.5,N
1561055835.0,286047003.2,N
1561055835.9,286047003.2,N
1561055855.7,286047003.2,N
1561055875.6,286047004.0,N
1561055895.4,286047002.0,N
1561055915.2,286046999.7,N
1561055935.1,286047000.6,N
1561055936.0,286047000.6,N
1561055955.8,286047003.3,N
1561055975.6,286047008.3,Y
1561055995.5,286047007.8,P
1561056015.3,286047009.9,P
1561056035.1,286047011.9,P
1561056055.9,286047011.7,Y
1561056075.7,286047005.5,P
1561056095.5,286047002.9,N
1561056115.4,286047004.2,N
1561056135.2,286047002.2,N
1561056155.0,286047003.1,N
1561056155.9,286047003.1,N
1561056175.8,286047005.3,N
1561056195.6,286047004.5,N
1561056215.4,286047003.2,N
1561056235.3,286047003.7,N
1561056255.1,286047002.0,N
1561056275.8,286047007.6,Y
1561056295.7,286047002.0,P
1561056315.5,286047002.1,N
1561056335.3,286047000.4,N
1561056355.2,286047000.6,N
1561056375.0,286046999.2,N
1561056375.9,286046999.2,N
1561056395.7,286046997.0,N
1561056415.6,286046996.5,N
1561056435.4,286046995.6,N
1561056455.2,286046997.8,N
1561056475.1,286046999.5,N
1561056476.0,286046999.5,N
1561056495.8,286046999.0,N
1561056515.6,286046999.1,N
1561056535.5,286046998.1,N
1561056555.3,286047002.4,N
1561056575.1,286047002.1,N
1561056595.9,286047003.6,N
1561056615.7,286047004.5,N
1561056635.5,286047007.4,Y
1561056655.4,286047007.1,P
1561056675.2,286047008.9,N
1561056695.0,286047006.5,N
1561056695.9,286047006.5,N
1561056715.8,286047006.9,N
1561056735.6,286047006.8,N
1561056755.4,286047008.5,Y
1561056775.3,286047004.3,P
1561056795.1,286047003.5,P
1561056815.8,286047003.1,N
1561056835.7,286047003.5,N
1561056855.5,286047002.9,N
1561056875.3,286047004.6,Y
1561056895.2,286047000.8,P
1561056915.0,286046999.0,N
1561056915.9,286046999.0,N
1561056935.8,286046999.5,N
1561056955.6,286046998.4,N
1561056975.4,286046998.3,N
1561056995.2,286047001.0,N
1561057015.1,286047002.1,N
1561057016.0,286047002.1,N
1561057035.8,286047003.9,N
1561057055.6,286047001.7,N
1561057075.5,286047001.6,N
1561057095.3,286046999.7,N
1561057115.1,286047002.7,N
1561057135.9,286047001.0,N
1561057185.7,286046998.1,E
1561057195.7,286047001.2,N
